DW7809 Newbiggin UK current weather conditions

sailwx.info

Wind from 142 at 9 knots gusting 14

Air temperature 11.7° C
Dewpoint 11.5° C

Last reported at 2019-Dec-06 07:09 UTC.
Time now 2019-Dec-06 07:59 UTC

Location: N 54°07' W 003°07'.
View on Google Maps.

See reports from other nearby stations

  
Tides and Currents Weather Stations Pressure Air Temp Water Temp Dewpoint Dewpoint Depression Visibility Wind Speed Wind Dir Waves Ship Positions
date/time (UTC)wind fromknots sea level pressurealtimeterstation pressurevisibilityair tempwater tempwave heightnotes
2019-Dec-06 07:09 142 9 gusting 14 11.7
2019-Dec-06 06:59 142 6 gusting 13 11.7
2019-Dec-06 06:49 142 6 gusting 14 11.7
2019-Dec-06 06:39 142 6 gusting 14 11.7
2019-Dec-06 06:29 142 7 gusting 13 11.7
2019-Dec-06 06:19 142 5 gusting 14 11.7
2019-Dec-06 06:09 142 4 gusting 14 11.7
2019-Dec-06 05:59 142 8 gusting 13 11.7
2019-Dec-06 05:49 142 7 gusting 13 11.7
2019-Dec-06 05:39 142 9 gusting 13 11.7
2019-Dec-06 05:29 142 6 gusting 13 11.7
2019-Dec-06 05:19 142 6 gusting 13 11.7
2019-Dec-06 05:09 142 6 gusting 14 11.7
2019-Dec-06 04:58 142 7 gusting 14 11.7
2019-Dec-06 04:48 142 6 gusting 11 11.7
2019-Dec-06 04:38 142 6 gusting 13 11.7
2019-Dec-06 04:28 142 7 gusting 13 11.7
2019-Dec-06 04:18 142 5 gusting 11 11.7
2019-Dec-06 04:08 142 6 gusting 13 11.7
2019-Dec-06 03:58 143 5 gusting 11 11.7
2019-Dec-06 03:48 142 7 gusting 11 11.7
2019-Dec-06 03:38 142 5 gusting 11 11.7
2019-Dec-06 03:28 142 2 gusting 13 11.7
2019-Dec-06 03:18 142 7 gusting 11 11.7
2019-Dec-06 03:08 142 6 gusting 11 11.7
2019-Dec-06 02:58 142 4 gusting 11 11.7
2019-Dec-06 02:48 142 6 gusting 11 11.7
2019-Dec-06 02:38 142 2 gusting 11 11.7
2019-Dec-06 02:27 142 5 gusting 13 11.7
2019-Dec-06 02:17 142 4 gusting 11 12.2
2019-Dec-06 02:07 142 6 gusting 13 11.7
2019-Dec-06 01:57 142 6 gusting 13 11.7
2019-Dec-06 01:47 152 6 gusting 14 11.7
2019-Dec-06 01:37 142 7 gusting 11 11.7
2019-Dec-06 01:27 142 8 gusting 14 11.7
2019-Dec-06 01:17 142 6 gusting 14 11.7
2019-Dec-06 01:07 142 6 gusting 14 11.7
2019-Dec-06 00:57 142 7 gusting 13 11.7
2019-Dec-06 00:47 150 7 gusting 17 11.7
2019-Dec-06 00:37 142 12 gusting 17 11.7
2019-Dec-06 00:27 148 9 gusting 13 11.7
2019-Dec-06 00:17 180 6 gusting 13 11.7
2019-Dec-06 00:07 165 6 gusting 14 11.7
2019-Dec-05 23:57 163 9 gusting 17 11.7
2019-Dec-05 23:47 180 7 gusting 19 11.7
2019-Dec-05 23:37 181 11 gusting 14 11.7
2019-Dec-05 23:26 171 8 gusting 14 11.7
2019-Dec-05 23:16 248 11 gusting 14 11.7
2019-Dec-05 23:06 239 9 gusting 21 11.7
2019-Dec-05 22:56 180 7 gusting 19 11.7
2019-Dec-05 22:46 177 8 gusting 17 11.7
2019-Dec-05 22:36 170 12 gusting 24 11.7
2019-Dec-05 22:26 196 9 gusting 17 11.7
2019-Dec-05 22:16 173 12 gusting 19 11.7
2019-Dec-05 22:06 181 9 gusting 19 11.7
2019-Dec-05 21:56 193 11 gusting 17 11.7
2019-Dec-05 21:46 163 10 gusting 17 11.7
2019-Dec-05 21:36 209 8 gusting 14 11.7
2019-Dec-05 21:26 196 8 gusting 17 11.7
2019-Dec-05 21:16 198 8 gusting 14 11.7
2019-Dec-05 21:06 194 7 gusting 14 12.2
2019-Dec-05 20:56 207 10 gusting 19 12.2
2019-Dec-05 20:46 192 11 gusting 17 12.2
2019-Dec-05 20:36 297 10 gusting 14 12.2
2019-Dec-05 20:23 139 11 gusting 17 11.7
2019-Dec-05 20:13 155 16 gusting 21 11.7
2019-Dec-05 20:03 166 12 gusting 21 11.7
2019-Dec-05 19:53 241 12 gusting 19 11.7
2019-Dec-05 19:43 206 10 gusting 21 11.7
2019-Dec-05 19:33 167 13 gusting 24 11.7
2019-Dec-05 19:23 171 16 gusting 26 11.7
2019-Dec-05 19:13
2019-Dec-05 18:52 178 13 gusting 24 11.7
2019-Dec-05 18:42 184 13 gusting 26 12.2
2019-Dec-05 18:32 103 11 gusting 26 11.7
2019-Dec-05 18:22 239 19 gusting 28 11.7
2019-Dec-05 18:06 136 11 gusting 24 11.7
2019-Dec-05 17:56 149 8 gusting 13 11.7
2019-Dec-05 17:30
2019-Dec-05 17:08
2019-Dec-05 16:53 212 14 gusting 30 11.7
2019-Dec-05 16:43 229 13 gusting 19 11.1
2019-Dec-05 16:26 199 12 gusting 28 11.1
2019-Dec-05 16:16 233 15 gusting 24 11.1
2019-Dec-05 16:06 180 19 gusting 28 11.1
2019-Dec-05 15:56 116 13 gusting 28 11.1
2019-Dec-05 15:46 200 9 gusting 21 11.1
2019-Dec-05 15:36 210 9 gusting 24 10.6
2019-Dec-05 15:24 192 16 gusting 21 10.6
2019-Dec-05 15:14 190 13 gusting 24 10.6
2019-Dec-05 15:02 191 19 gusting 24 10.6
2019-Dec-05 14:52 172 13 gusting 24 10.0
2019-Dec-05 14:37 167 11 gusting 19 10.0
2019-Dec-05 14:27 203 13 gusting 28 10.0
2019-Dec-05 14:16 161 19 gusting 26 10.0
2019-Dec-05 14:06 156 17 gusting 24 10.0
2019-Dec-05 13:37 145 13 gusting 21 9.4
2019-Dec-05 13:27 178 16 gusting 24 9.4
2019-Dec-05 13:16
2019-Dec-05 12:59 180 11 gusting 24 9.4
2019-Dec-05 12:49 169 12 gusting 19 9.4
2019-Dec-05 12:35 190 13 gusting 19 9.4
2019-Dec-05 12:25 178 9 gusting 14 9.4
2019-Dec-05 12:15 164 9 gusting 13 9.4
2019-Dec-05 12:03 189 8 gusting 19 10.0
2019-Dec-05 11:53 150 13 gusting 17 10.0
2019-Dec-05 11:43 186 7 gusting 14 10.0
2019-Dec-05 11:33 195 6 gusting 14 10.0
2019-Dec-05 11:22 189 7 gusting 14 10.0
2019-Dec-05 11:12 152 8 gusting 14 10.0
2019-Dec-05 11:02 172 8 gusting 17 10.0
2019-Dec-05 10:52
2019-Dec-05 10:38 182 7 gusting 14 10.0
2019-Dec-05 10:28
2019-Dec-05 09:58 151 6 gusting 14 9.4
2019-Dec-05 09:48
2019-Dec-05 08:20 142 6 gusting 8 9.4
2019-Dec-05 07:07 146 5 gusting 11 8.9
2019-Dec-05 06:56 142 6 gusting 11 8.9
2019-Dec-05 06:46
2019-Dec-05 03:49
2019-Dec-05 02:59
2019-Dec-05 02:06
2019-Dec-05 01:29 224 3 gusting 11 8.3
2019-Dec-05 01:19
2019-Dec-05 00:11 159 0 gusting 4 7.8
2019-Dec-05 00:00
2019-Dec-04 23:27 201 3 gusting 8 7.8
2019-Dec-04 23:17 301 1 gusting 6 6.7
2019-Dec-04 23:07 168 0 gusting 1 7.2
2019-Dec-04 22:53 150 7.2
2019-Dec-04 22:43 119 0 gusting 1 7.8
2019-Dec-04 22:32 138 0 gusting 6 7.8
2019-Dec-04 22:22
2019-Dec-04 21:57
2019-Dec-04 21:24 153 7.8
2019-Dec-04 21:14 186 0 gusting 4 7.8
2019-Dec-04 21:03 184 0 gusting 1 7.8
2019-Dec-04 20:53 256 2 gusting 4 7.8
2019-Dec-04 20:40 170 7.8
2019-Dec-04 20:30 203 7.8
2019-Dec-04 20:20 260 1 gusting 4 7.2
2019-Dec-04 20:10 256 2 gusting 4 6.7
2019-Dec-04 20:00 142 6.7
2019-Dec-04 19:50 165 7.2
2019-Dec-04 19:40 178 6.7
2019-Dec-04 19:30 187 1 gusting 1 6.7
2019-Dec-04 19:20 277 6.7
2019-Dec-04 19:09 152 7.8
2019-Dec-04 18:57 171 7.8
2019-Dec-04 18:47 123 8.3
2019-Dec-04 18:35 165 8.3
2019-Dec-04 18:25
2019-Dec-04 17:57 148 2 gusting 11 9.4
2019-Dec-04 17:47 167 7 gusting 11 9.4
2019-Dec-04 17:37 145 7 gusting 14 9.4
2019-Dec-04 17:27 185 11 gusting 14 9.4
2019-Dec-04 17:16 191 5 gusting 13 9.4
2019-Dec-04 17:06 172 6 gusting 13 9.4
2019-Dec-04 16:55 174 3 gusting 11 9.4
2019-Dec-04 16:45 187 5 gusting 8 9.4
2019-Dec-04 16:34 152 9 gusting 13 9.4
2019-Dec-04 16:24 178 6 gusting 11 9.4
2019-Dec-04 16:14 197 7 gusting 13 9.4
2019-Dec-04 16:04 156 6 gusting 11 9.4
2019-Dec-04 15:54 133 5 gusting 13 9.4
2019-Dec-04 15:44 181 8 gusting 13 9.4
2019-Dec-04 15:34 150 4 gusting 13 10.0
2019-Dec-04 15:24 196 5 gusting 14 10.0
2019-Dec-04 15:14 163 4 gusting 13 9.4
2019-Dec-04 15:04 178 6 gusting 11 9.4
2019-Dec-04 14:54 171 7 gusting 13 9.4
2019-Dec-04 14:44 184 7 gusting 13 9.4
2019-Dec-04 14:34 171 7 gusting 14 8.3
2019-Dec-04 14:24 147 5 gusting 13 8.3
2019-Dec-04 14:14 175 6 gusting 17 8.3
2019-Dec-04 14:03 164 9 gusting 19 8.3
2019-Dec-04 13:53 160 11 gusting 14 8.3
2019-Dec-04 13:43 176 11 gusting 14 8.3
2019-Dec-04 13:32 198 8 gusting 17 8.3
2019-Dec-04 13:22 176 10 gusting 14 7.8
2019-Dec-04 13:08 167 6 gusting 13 7.8
2019-Dec-04 12:58 194 7 gusting 13 7.8
2019-Dec-04 12:43 153 9 gusting 17 7.8
2019-Dec-04 12:33 176 8 gusting 11 7.8
2019-Dec-04 12:02 181 7 gusting 14 7.8
2019-Dec-04 11:52 186 10 gusting 13 7.8
2019-Dec-04 11:42 202 8 gusting 14 8.3
2019-Dec-04 11:32 186 7 gusting 14 8.3
2019-Dec-04 11:22 202 7 gusting 19 7.8
2019-Dec-04 11:11 157 11 gusting 17 7.2
2019-Dec-04 11:01 186 5 gusting 11 7.2
2019-Dec-04 10:51 172 5 gusting 13 7.2
2019-Dec-04 10:41
2019-Dec-04 10:19
2019-Dec-04 09:25 131 7 gusting 13 6.1
2019-Dec-04 09:15 170 10 gusting 11 6.1
2019-Dec-04 09:05